Time,TemperatureF,DewpointF,PressureIn,WindDirection,WindDirectionDegrees,WindSpeedMPH,WindSpeedGustMPH,Humidity,HourlyPrecipIn,Conditions,Clouds,dailyrainin,SolarRadiationWatts/m^2,SoftwareType,DateUTC
2013-02-19 00:00:00,40.9,35.8,29.90,ENE,57,2.0,8.0,82,0.12,,,0.00,0.00,VWS V14.00,2013-02-19 06:00:00,
2013-02-19 00:15:00,40.6,35.8,29.92,NE,42,6.0,11.0,83,0.13,,,0.02,0.00,VWS V14.00,2013-02-19 06:15:00,
2013-02-19 00:30:00,40.3,36.2,29.93,NE,51,0.0,12.0,85,0.10,,,0.03,0.00,VWS V14.00,2013-02-19 06:30:00,
2013-02-19 00:45:00,40.0,35.9,29.93,ENE,64,4.0,10.0,85,0.08,,,0.04,0.00,VWS V14.00,2013-02-19 06:45:00,
2013-02-19 01:00:00,39.9,36.3,29.93,East,84,3.0,9.0,87,0.07,,,0.05,0.00,VWS V14.00,2013-02-19 07:00:00,
2013-02-19 01:15:00,39.7,36.2,29.97,NNW,346,1.0,8.0,87,0.06,,,0.06,0.00,VWS V14.00,2013-02-19 07:15:00,
2013-02-19 01:30:00,39.4,36.4,29.97,ENE,63,0.0,8.0,89,0.06,,,0.08,0.00,VWS V14.00,2013-02-19 07:30:00,
2013-02-19 01:45:00,39.3,36.6,29.96,WNW,293,0.0,6.0,90,0.06,,,0.09,0.00,VWS V14.00,2013-02-19 07:45:00,
2013-02-19 02:00:00,38.9,36.2,29.94,NE,46,3.0,10.0,90,0.07,,,0.11,0.00,VWS V14.00,2013-02-19 08:00:00,
2013-02-19 02:15:00,38.6,35.9,29.92,WSW,248,1.0,7.0,90,0.06,,,0.11,0.00,VWS V14.00,2013-02-19 08:15:00,
2013-02-19 02:30:00,38.4,36.0,29.91,ENE,64,2.0,9.0,91,0.05,,,0.11,0.00,VWS V14.00,2013-02-19 08:30:00,
2013-02-19 02:45:00,38.4,36.3,29.91,NNE,30,8.0,14.0,92,0.03,,,0.11,0.00,VWS V14.00,2013-02-19 08:45:00,
2013-02-19 03:00:00,38.4,36.3,29.90,NE,45,2.0,8.0,92,0.02,,,0.11,0.00,VWS V14.00,2013-02-19 09:00:00,
2013-02-19 03:15:00,38.3,35.9,29.90,North,11,5.0,10.0,91,0.00,,,0.11,0.00,VWS V14.00,2013-02-19 09:15:00,
2013-02-19 03:30:00,38.1,35.7,29.89,SSE,151,5.0,10.0,91,0.00,,,0.11,0.00,VWS V14.00,2013-02-19 09:30:00,
2013-02-19 03:45:00,38.0,35.6,29.89,NE,51,1.0,9.0,91,0.00,,,0.11,0.00,VWS V14.00,2013-02-19 09:45:00,
2013-02-19 04:00:00,38.2,35.8,29.88,NE,46,2.0,7.0,91,0.00,,,0.11,0.00,VWS V14.00,2013-02-19 10:00:00,
2013-02-19 04:15:00,38.3,35.9,29.88,North,5,1.0,8.0,91,0.00,,,0.11,0.00,VWS V14.00,2013-02-19 10:15:00,
2013-02-19 04:30:00,38.4,36.3,29.88,NE,36,2.0,7.0,92,0.00,,,0.11,0.00,VWS V14.00,2013-02-19 10:30:00,
2013-02-19 04:45:00,38.6,36.5,29.88,NNE,31,0.0,8.0,92,0.00,,,0.11,0.00,VWS V14.00,2013-02-19 10:45:00,
2013-02-19 05:00:00,38.7,36.6,29.89,NW,313,4.0,11.0,92,0.00,,,0.11,0.00,VWS V14.00,2013-02-19 11:00:00,
2013-02-19 05:15:00,39.1,37.2,29.89,West,275,0.0,7.0,93,0.00,,,0.11,0.00,VWS V14.00,2013-02-19 11:15:00,
2013-02-19 05:30:00,39.3,37.5,29.89,NE,41,2.0,7.0,93,0.00,,,0.11,0.00,VWS V14.00,2013-02-19 11:30:00,
2013-02-19 05:45:00,39.7,37.8,29.89,NE,54,1.0,5.0,93,0.00,,,0.11,0.00,VWS V14.00,2013-02-19 11:45:00,
2013-02-19 06:00:00,40.2,38.6,29.90,WNW,301,1.0,5.0,94,0.00,,,0.11,0.00,VWS V14.00,2013-02-19 12:00:00,
2013-02-19 06:15:00,41.3,39.7,29.91,NW,321,11.0,11.0,94,0.00,,,0.11,0.00,VWS V14.00,2013-02-19 12:15:00,
2013-02-19 06:30:00,41.5,39.9,29.92,WNW,292,6.0,11.0,94,0.00,,,0.11,0.00,VWS V14.00,2013-02-19 12:30:00,
2013-02-19 06:45:00,40.8,38.9,29.93,West,275,2.0,12.0,93,0.00,,,0.11,0.00,VWS V14.00,2013-02-19 12:45:00,
2013-02-19 07:00:00,40.1,38.2,29.94,SSE,168,4.0,11.0,93,0.00,,,0.11,0.00,VWS V14.00,2013-02-19 13:00:00,
2013-02-19 07:15:00,39.0,37.2,29.95,South,178,1.0,9.0,93,0.00,,,0.11,5.00,VWS V14.00,2013-02-19 13:15:00,
2013-02-19 07:30:00,37.7,35.9,29.96,WNW,296,5.0,10.0,93,0.00,,,0.11,11.00,VWS V14.00,2013-02-19 13:30:00,
2013-02-19 07:45:00,37.4,35.8,29.97,WNW,288,9.0,10.0,94,0.00,,,0.11,11.00,VWS V14.00,2013-02-19 13:45:00,
2013-02-19 08:00:00,37.1,35.5,29.98,WNW,286,2.0,11.0,94,0.00,,,0.11,21.00,VWS V14.00,2013-02-19 14:00:00,
2013-02-19 08:15:00,37.0,35.4,29.98,WNW,285,1.0,8.0,94,0.00,,,0.11,65.00,VWS V14.00,2013-02-19 14:15:00,
2013-02-19 08:30:00,37.1,35.0,29.99,WNW,287,0.0,9.0,92,0.00,,,0.11,134.00,VWS V14.00,2013-02-19 14:30:00,
2013-02-19 08:45:00,37.9,34.4,29.98,WNW,300,3.0,11.0,87,0.00,,,0.11,134.00,VWS V14.00,2013-02-19 14:45:00,
2013-02-19 09:00:00,38.2,33.5,29.99,WSW,255,3.0,12.0,83,0.00,,,0.11,128.00,VWS V14.00,2013-02-19 15:00:00,
2013-02-19 09:15:00,38.9,33.9,29.99,NW,326,6.0,13.0,82,0.00,,,0.11,209.00,VWS V14.00,2013-02-19 15:15:00,
2013-02-19 09:30:00,39.3,34.0,29.99,West,260,6.0,15.0,81,0.00,,,0.11,167.00,VWS V14.00,2013-02-19 15:30:00,
2013-02-19 09:45:00,39.1,32.8,29.99,West,280,4.0,13.0,78,0.00,,,0.11,118.00,VWS V14.00,2013-02-19 15:45:00,
2013-02-19 10:00:00,39.8,33.5,29.99,WNW,302,0.0,11.0,78,0.00,,,0.11,336.00,VWS V14.00,2013-02-19 16:00:00,
2013-02-19 10:15:00,40.9,34.3,29.99,WNW,295,1.0,10.0,77,0.00,,,0.11,232.00,VWS V14.00,2013-02-19 16:15:00,
2013-02-19 10:30:00,41.4,33.1,30.00,NNW,342,7.0,13.0,72,0.00,,,0.11,90.00,VWS V14.00,2013-02-19 16:30:00,
2013-02-19 10:45:00,41.8,32.4,29.99,WNW,290,7.0,14.0,69,0.00,,,0.11,341.00,VWS V14.00,2013-02-19 16:45:00,
2013-02-19 11:00:00,42.4,30.3,29.99,NW,316,2.0,13.0,62,0.00,,,0.11,554.00,VWS V14.00,2013-02-19 17:00:00,
2013-02-19 11:15:00,43.2,30.7,29.99,NW,306,4.0,12.0,61,0.00,,,0.11,636.00,VWS V14.00,2013-02-19 17:15:00,
2013-02-19 11:30:00,43.6,29.8,29.99,West,271,1.0,12.0,58,0.00,,,0.11,568.00,VWS V14.00,2013-02-19 17:30:00,
2013-02-19 11:45:00,44.3,28.3,30.00,SW,232,5.0,14.0,53,0.00,,,0.11,613.00,VWS V14.00,2013-02-19 17:45:00,
2013-02-19 12:00:00,43.7,26.3,30.00,WNW,291,6.0,16.0,50,0.00,,,0.11,591.00,VWS V14.00,2013-02-19 18:00:00,
2013-02-19 12:15:00,44.4,25.5,29.99,West,279,4.0,14.0,47,0.01,,,0.12,580.00,VWS V14.00,2013-02-19 18:15:00,
2013-02-19 12:30:00,44.7,25.7,29.99,West,276,5.0,11.0,47,0.01,,,0.12,366.00,VWS V14.00,2013-02-19 18:30:00,
2013-02-19 12:45:00,44.3,23.2,29.99,East,97,7.0,16.0,43,0.01,,,0.12,420.00,VWS V14.00,2013-02-19 18:45:00,
2013-02-19 13:00:00,44.4,24.4,30.00,ESE,117,3.0,11.0,45,0.01,,,0.12,570.00,VWS V14.00,2013-02-19 19:00:00,
2013-02-19 13:15:00,44.4,23.3,30.00,WNW,292,0.0,13.0,43,0.01,,,0.12,717.00,VWS V14.00,2013-02-19 19:15:00,
2013-02-19 13:30:00,43.8,22.2,30.00,WNW,298,9.0,14.0,42,0.00,,,0.12,427.00,VWS V14.00,2013-02-19 19:30:00,
2013-02-19 13:45:00,44.2,20.8,30.01,WNW,302,8.0,14.0,39,0.00,,,0.12,315.00,VWS V14.00,2013-02-19 19:45:00,
2013-02-19 14:00:00,44.0,21.2,30.01,SW,233,3.0,10.0,40,0.00,,,0.12,434.00,VWS V14.00,2013-02-19 20:00:00,
2013-02-19 14:15:00,44.3,22.7,30.01,WNW,296,8.0,12.0,42,0.00,,,0.12,473.00,VWS V14.00,2013-02-19 20:15:00,
2013-02-19 14:30:00,44.0,19.4,30.01,WNW,296,8.0,18.0,37,0.00,,,0.12,376.00,VWS V14.00,2013-02-19 20:30:00,
2013-02-19 14:45:00,43.4,18.2,30.02,West,261,7.0,14.0,36,0.00,,,0.12,237.00,VWS V14.00,2013-02-19 20:45:00,
2013-02-19 15:00:00,43.5,19.6,30.02,WNW,286,7.0,14.0,38,0.00,,,0.12,178.00,VWS V14.00,2013-02-19 21:00:00,
2013-02-19 15:15:00,43.4,18.9,30.03,NE,36,5.0,13.0,37,0.00,,,0.12,60.00,VWS V14.00,2013-02-19 21:15:00,
2013-02-19 15:30:00,43.8,20.5,30.03,WNW,302,6.0,11.0,39,0.00,,,0.12,251.00,VWS V14.00,2013-02-19 21:30:00,
2013-02-19 15:45:00,43.3,19.4,30.03,SSE,155,1.0,14.0,38,0.00,,,0.12,83.00,VWS V14.00,2013-02-19 21:45:00,
2013-02-19 16:00:00,42.9,20.3,30.04,NW,314,6.0,9.0,40,0.00,,,0.12,56.00,VWS V14.00,2013-02-19 22:00:00,
2013-02-19 16:15:00,42.2,20.8,30.05,WNW,298,1.0,14.0,42,0.00,,,0.12,40.00,VWS V14.00,2013-02-19 22:15:00,
2013-02-19 16:30:00,41.6,19.1,30.06,West,280,1.0,9.0,40,0.00,,,0.12,30.00,VWS V14.00,2013-02-19 22:30:00,
2013-02-19 16:45:00,41.0,18.0,30.06,WNW,292,5.0,8.0,39,0.00,,,0.12,19.00,VWS V14.00,2013-02-19 22:45:00,
2013-02-19 17:00:00,40.1,15.9,30.07,NE,53,4.0,11.0,37,0.00,,,0.12,12.00,VWS V14.00,2013-02-19 23:00:00,
2013-02-19 17:15:00,39.5,17.2,30.07,WNW,282,0.0,7.0,40,0.00,,,0.12,7.00,VWS V14.00,2013-02-19 23:15:00,
2013-02-19 17:30:00,38.4,18.9,30.08,West,281,5.0,5.0,45,0.00,,,0.12,0.00,VWS V14.00,2013-02-19 23:30:00,
2013-02-19 17:45:00,38.1,17.0,30.09,WNW,298,3.0,8.0,42,0.00,,,0.12,0.00,VWS V14.00,2013-02-19 23:45:00,
2013-02-19 18:00:00,37.5,18.1,30.10,NNE,12,0.0,6.0,45,0.00,,,0.12,0.00,VWS V14.00,2013-02-20 00:00:00,
2013-02-19 18:15:00,36.5,19.2,30.10,WNW,294,1.0,6.0,49,0.00,,,0.12,0.00,VWS V14.00,2013-02-20 00:15:00,
2013-02-19 18:30:00,36.0,19.2,30.11,WNW,292,3.0,6.0,50,0.00,,,0.12,0.00,VWS V14.00,2013-02-20 00:30:00,
2013-02-19 18:45:00,35.5,19.2,30.11,WNW,297,4.0,6.0,51,0.00,,,0.12,0.00,VWS V14.00,2013-02-20 00:45:00,
2013-02-19 19:00:00,35.0,18.7,30.12,WNW,302,1.0,4.0,51,0.00,,,0.12,0.00,VWS V14.00,2013-02-20 01:00:00,
2013-02-19 19:15:00,34.6,19.2,30.12,WNW,297,2.0,6.0,53,0.00,,,0.12,0.00,VWS V14.00,2013-02-20 01:15:00,
2013-02-19 19:30:00,33.8,20.2,30.12,West,278,0.0,5.0,57,0.00,,,0.12,0.00,VWS V14.00,2013-02-20 01:30:00,
2013-02-19 19:45:00,33.7,20.1,30.12,WNW,292,0.0,7.0,57,0.00,,,0.12,0.00,VWS V14.00,2013-02-20 01:45:00,
2013-02-19 20:00:00,32.9,19.8,30.13,WNW,290,1.0,4.0,58,0.00,,,0.12,0.00,VWS V14.00,2013-02-20 02:00:00,
2013-02-19 20:15:00,33.1,19.5,30.13,WNW,296,0.0,5.0,57,0.00,,,0.12,0.00,VWS V14.00,2013-02-20 02:15:00,
2013-02-19 20:30:00,32.0,20.5,30.14,SW,234,0.0,3.0,62,0.00,,,0.12,0.00,VWS V14.00,2013-02-20 02:30:00,
2013-02-19 20:45:00,31.9,19.2,30.14,WNW,291,0.0,4.0,59,0.00,,,0.12,0.00,VWS V14.00,2013-02-20 02:45:00,
2013-02-19 21:00:00,32.0,18.9,30.15,WNW,289,1.0,4.0,58,0.00,,,0.12,0.00,VWS V14.00,2013-02-20 03:00:00,
2013-02-19 21:15:00,31.9,18.8,30.16,West,281,5.0,5.0,58,0.00,,,0.12,0.00,VWS V14.00,2013-02-20 03:15:00,
2013-02-19 21:30:00,31.5,18.4,30.15,NW,307,1.0,5.0,58,0.00,,,0.12,0.00,VWS V14.00,2013-02-20 03:30:00,
2013-02-19 21:45:00,30.7,18.5,30.17,WNW,288,0.0,5.0,60,0.00,,,0.12,0.00,VWS V14.00,2013-02-20 03:45:00,
2013-02-19 22:00:00,30.1,19.4,30.17,WNW,300,1.0,4.0,64,0.00,,,0.12,0.00,VWS V14.00,2013-02-20 04:00:00,
2013-02-19 22:15:00,30.1,19.8,30.18,NW,316,1.0,4.0,65,0.00,,,0.12,0.00,VWS V14.00,2013-02-20 04:15:00,
2013-02-19 22:30:00,31.0,18.4,30.18,NW,316,0.0,7.0,59,0.00,,,0.12,0.00,VWS V14.00,2013-02-20 04:30:00,
2013-02-19 22:45:00,30.3,19.2,30.18,NNE,33,0.0,3.0,63,0.00,,,0.12,0.00,VWS V14.00,2013-02-20 04:45:00,
2013-02-19 23:00:00,29.8,18.8,30.18,ENE,62,1.0,5.0,63,0.00,,,0.12,0.00,VWS V14.00,2013-02-20 05:00:00,
2013-02-19 23:15:00,30.1,19.0,30.17,WNW,298,0.0,5.0,63,0.00,,,0.12,0.00,VWS V14.00,2013-02-20 05:15:00,
2013-02-19 23:30:00,30.0,19.0,30.17,NW,306,1.0,3.0,63,0.00,,,0.12,0.00,VWS V14.00,2013-02-20 05:30:00,
2013-02-19 23:45:00,29.5,18.8,30.17,NW,311,4.0,4.0,64,0.00,,,0.12,0.00,VWS V14.00,2013-02-20 05:45:00,